Flag for Argentina Weather past 2 weeks in Comodoro Rivadavia, Chubut, Argentina

Now
81 °F

Sunny.


Feels Like: 79 °F
Forecast: N/A
Wind: 21 mph from West

Location: Comodoro Rivadavia Aerodrome

Current Time: Mar 5, 2015 at 5:53:24 PM

Latest Report: Mar 5, 2015 at 5:00 PM


Visibility: 10 mi

Pressure: 29.71 "Hg

Humidity: 21%

Dew point: 37 °F

Location of Comodoro RivadaviaLocation

Historic Weather in Comodoro Rivadavia — Graph

°F

Comodoro Rivadavia temperature yesterday

Maximum temperature yesterday: 81 °F (at 3:00 PM)
Minimum temperature yesterday: 57 °F (at 11:00 PM)
Average temperature yesterday: 66 °F

Past Weeks' High & Low Weather Summary

 TemperatureHumidityPressure
High86 °F (Feb 28, 12:00 PM)88% (Feb 21, 6:00 AM)30.42 "Hg (Feb 21, 6:00 AM)
Low46 °F (Feb 22, 6:00 AM)12% (Feb 22, 6:00 PM)29.56 "Hg (Mar 2, 4:00 AM)
Average68 °F44%29.85 "Hg
* Reported Feb 18 5:00 PM — Mar 5 5:00 PM, Comodoro Rivadavia, Weather by CustomWeather, © 2015

Note: Actual official high and low records may vary slightly from our data, if they occured in-between our weather recording intervals... More about our weather records

Advertising

Comodoro Rivadavia weather history for previous 24 hours

 ConditionsComfort  
Time TempWeatherWind HumidityBarometerVisibility
5:00 PM
Thu, Mar 5
81 °FSunny.21 mph21%29.71 "Hg10 mi
4:00 PM79 °FPleasantly warm.31 mph17%29.65 "Hg5 mi
3:00 PM81 °FSunny.24 mph20%29.68 "Hg10 mi
2:00 PM77 °FScattered clouds.25 mph24%29.68 "Hg3 mi
1:00 PM75 °FPassing clouds.25 mph25%29.68 "HgN/A
12:00 PM73 °FPassing clouds.26 mph29%29.68 "HgN/A
11:00 AM70 °FPassing clouds.23 mph35%29.65 "HgN/A
10:00 AM72 °FSunny.22 mph31%29.65 "Hg10 mi
9:00 AM68 °FSunny.23 mph28%29.62 "Hg10 mi
8:00 AM68 °FSunny.21 mph24%29.62 "Hg10 mi
7:00 AM68 °FSunny.15 mph28%29.62 "Hg10 mi
6:00 AM68 °FClear.8 mph26%29.62 "Hg10 mi
5:00 AM68 °FClear.9 mph28%29.62 "Hg10 mi
4:00 AM61 °FClear.3 mph59%29.62 "Hg10 mi
3:00 AM63 °FClear.3 mph56%29.65 "Hg10 mi
2:00 AM66 °FClear.3 mph46%29.65 "Hg10 mi
1:00 AM70 °FClear.7 mph38%29.68 "Hg10 mi
12:00 AM59 °FClear.5 mph63%29.68 "Hg10 mi
11:00 PM
Wed, Mar 4
57 °FClear.No wind77%29.68 "Hg10 mi
10:00 PM63 °FClear.10 mph64%29.71 "Hg10 mi
9:00 PM63 °FClear.17 mph64%29.71 "Hg10 mi
8:00 PM66 °FClear.16 mph49%29.74 "Hg10 mi
7:00 PM68 °FSunny.18 mph46%29.77 "Hg10 mi
6:00 PM70 °FSunny.16 mph43%29.77 "Hg10 mi
5:00 PM73 °FSunny.18 mph33%29.77 "Hg10 mi
Weather by CustomWeather, © 2015

See weather overviewHow to use our weather pages